Starlink 30369

operational
NORAD ID: 57781 Int'l Des: 2023-134 Owner: SPXS Country: US Constellation: starlink
LEOCIRCULAR

About Starlink 30369

Description loading...

Live Position

Loading 3D Globe...

Upcoming Passes

Altitude History

Altitude vs Time

uPlot chart will show altitude changes over time

Two-Line Element Set

1 57781U 23134L 25304.01319697 -.00003300 00000-0 -22925-3 0 9992
2 57781 43.0026 182.2000 0001083 267.2313 92.8405 15.02553870119964
Epoch: Oct 31, 2025 • Age: 53 hours

Current Status

Altitude 558.6 km
Velocity 7.58 km/s
Sub-Earth Point 0.55°N, 54.58°E
Launch Date Sep 4, 2023
Age 2.1 years
Type internet

Technical Details

Classification Payload
Mass 730.00 kg
Dry Mass 700.00 kg
Total Mass 730.00 kg
Length 0.30 m
Diameter 4.10 m
Span 29.00 m
Shape Box + pan
Manufacturer SPXS
Bus Type Starlink V2M
Phase Status In Orbit
Owner/State SPXS/US

Large Constellations

Loading constellations...